Volver al catálogo

STARLINK-35170

ActivoComunicacionesSSO
NORAD 65532·PAYLOAD·🇺🇸 United States

Lanzado Sep 6, 2025 desde Cape Canaveral Space Force Station

Loading…

Próximos Pases (próximas 24 horas)

TLE

ActualizadoSource: CelesTrak SupGP

Época: Sep 15, 2026, 03:05 UTC

1 65532C 25200N   26258.12895833  .00074564  00000+0  23134-2 0  2580
2 65532  97.2842 324.6387 0000847  92.1882 172.7865 15.33419795    11

Sigue STARLINK-35170 en tiempo real con AllMySat

Download on the App Store